FENGYUN 1C DEB

Satellite information

Favourite Embed

Satellite Type and Status

DEBRISIN ORBIT

Key statistics

Satellite FENGYUN 1C DEB at a glance.

Uptime

9553

Days in orbit

Revolutions

≈ 14.2

Per day

Orbit

SSO

Sun Synchronous Orbit

Inclination

98.6

Latest

Satellite identification and parameters

Extended collection of information and parameters for FENGYUN 1C DEB.

Object identification

Identified? True

Debris? True

Object name: FENGYUN 1C DEB

International designator: 1999-025CTU

Object number (NORAD): 32174

Object ID (CCSDS): 32174

Country: PEOPLES REPUBLIC OF CHINA (PRC)

Current information (Y/N): Y

RCS size: SMALL

Orbital parameters

Period: 101.575 minutes

Inclination: 98.6184 deg

SMA: 7211.385 km

Apoapsis: 942.223 km

Periapsis: 724.277 km

RAAN: 249.5013 deg

Eccentricy: 0.0151112

Argument of periapsis: 359.957 deg

Mean anomaly: 0.1568 deg

Mean motion: 14.17668708 rev/day

Mean motion (dot): 0.00000357 rev/day2

B* drag term: 0.00017547 1/REarth

Two-line elements (TLE)

Creation date: July 1, 2025, 6:11 p.m.

Reference frame: TEME

Reference center: EARTH

Epoch: July 1, 2025, 10:02 a.m. UTC

TLE line 0: 0 FENGYUN 1C DEB

TLE line 1: 1 32174U 99025CTU 25182.41815390 .00000357 00000-0 17547-3 0 9993

TLE line 2: 2 32174 98.6184 249.5013 0151112 359.9570 0.1568 14.17668708617774

Live tracking on map

Real-time ground track for satellite FENGYUN 1C DEB.

In-orbit conjunctions

A list of the most updated potential collisions computed for object FENGYUN 1C DEB.

Target Orbit TCA Probability of collision Miss distance Type
CZ-6A DEB SSO 2025-06-13 01:22:57 0.0004760287 42.0 (m) DEBRIS
CZ-6A DEB LEO 2025-03-04 16:29:15 0.000252066 234.0 (m) DEBRIS
SL-8 DEB * LEO 2024-08-04 10:16:47 0.0001229672 397.0 (m) DEBRIS

Associated space launch

Chinese polar orbiting meteorological satellite

FENGYUN 1C DEB was lifted into orbit during the mission ‘Long March 4B | Feng Yun 1C’, on board a Long March 4B space rocket.

The launch took place on May 10, 1999, 1:33 a.m. from Launch Complex 7.

For more information about the launch, click the button.

Launch to space Long March 4B | Feng Yun 1C
Long March 4B | Feng Yun 1C

Agency: N/A

Status: Launch Successful

Launch date: May 10, 1999, 1:33 a.m. UTC

Rocket: Long March 4B

Launch pad: Launch Complex 7

Location: Taiyuan Satellite Launch Center, People's Republic of China

...

Latest news about this satellite

There are no fresh news available about this satellite. Check back as we update our databases every day.


Newsletter sign-up

Weekly statistics, charts and insights to help you stay on top of the space industry.